�������l�o���
Date,Time,MP-1(��Sv/h),MP-2(��Sv/h),MP-3(��Sv/h),MP-4(��Sv/h),MP-5(��Sv/h),MP-6(��Sv/h),MP-7(��Sv/h),����,����(m/s),���J
2016/02/25,00:00,0.457,0.265,0.476,0.430,0.397,0.216,0.189,�k,6.2,��
2016/02/25,00:10,0.457,0.266,0.479,0.431,0.396,0.218,0.189,�k,5.8,��
2016/02/25,00:20,0.458,0.266,0.478,0.427,0.396,0.216,0.189,�k,6.4,��
2016/02/25,00:30,0.458,0.264,0.478,0.428,0.395,0.217,0.189,�k,5.0,��
2016/02/25,00:40,0.459,0.265,0.479,0.431,0.397,0.217,0.189,�k,4.7,��
2016/02/25,00:50,0.458,0.266,0.477,0.428,0.397,0.217,0.189,�k�k��,4.3,��
2016/02/25,01:00,0.459,0.264,0.479,0.429,0.395,0.217,0.190,�k,4.8,��
2016/02/25,01:10,0.459,0.265,0.477,0.429,0.394,0.216,0.189,�k,5.3,��
2016/02/25,01:20,0.459,0.264,0.477,0.429,0.396,0.217,0.190,�k,5.2,��
2016/02/25,01:30,0.457,0.265,0.478,0.430,0.395,0.216,0.189,�k,4.8,��
2016/02/25,01:40,0.460,0.265,0.477,0.430,0.397,0.217,0.189,�k,5.2,��
2016/02/25,01:50,0.458,0.265,0.478,0.429,0.395,0.217,0.189,�k,6.1,��
2016/02/25,02:00,0.458,0.265,0.478,0.430,0.397,0.217,0.190,�k,6.7,��
2016/02/25,02:10,0.459,0.264,0.477,0.430,0.397,0.217,0.188,�k,7.5,��
2016/02/25,02:20,0.458,0.266,0.476,0.431,0.396,0.217,0.188,�k,7.6,��
2016/02/25,02:30,0.457,0.266,0.477,0.429,0.396,0.216,0.189,�k,6.8,��
2016/02/25,02:40,0.459,0.265,0.479,0.429,0.395,0.216,0.189,�k,6.4,��
2016/02/25,02:50,0.458,0.265,0.476,0.429,0.395,0.217,0.190,�k,6.9,��
2016/02/25,03:00,0.459,0.265,0.480,0.430,0.396,0.218,0.189,�k,7.2,��
2016/02/25,03:10,0.459,0.266,0.478,0.429,0.397,0.216,0.189,�k,7.3,��
2016/02/25,03:20,0.459,0.264,0.479,0.431,0.395,0.217,0.189,�k,7.4,��
2016/02/25,03:30,0.458,0.265,0.480,0.429,0.397,0.217,0.189,�k,7.4,��
2016/02/25,03:40,0.460,0.265,0.480,0.429,0.395,0.218,0.189,�k,7.9,��
2016/02/25,03:50,0.458,0.265,0.477,0.430,0.395,0.217,0.190,�k,7.6,��
2016/02/25,04:00,0.459,0.265,0.477,0.428,0.396,0.217,0.189,�k,6.7,��
2016/02/25,04:10,0.458,0.266,0.477,0.429,0.396,0.217,0.188,�k,6.7,��
2016/02/25,04:20,0.459,0.265,0.480,0.428,0.396,0.217,0.189,�k,6.0,��
2016/02/25,04:30,0.459,0.265,0.478,0.427,0.397,0.215,0.189,�k,2.1,��
2016/02/25,04:40,0.458,0.265,0.480,0.429,0.396,0.218,0.188,�k,3.8,��
2016/02/25,04:50,0.457,0.265,0.477,0.430,0.396,0.217,0.188,�k�k��,3.9,��
2016/02/25,05:00,0.459,0.267,0.480,0.428,0.396,0.217,0.189,�k,3.1,��
2016/02/25,05:10,0.460,0.267,0.479,0.428,0.397,0.218,0.190,�k,3.1,��
2016/02/25,05:20,0.459,0.264,0.480,0.427,0.396,0.216,0.190,�k�k��,3.5,��
2016/02/25,05:30,0.457,0.265,0.479,0.430,0.396,0.217,0.190,�k,4.4,��
2016/02/25,05:40,0.458,0.265,0.477,0.429,0.394,0.216,0.189,�k,4.2,��
2016/02/25,05:50,0.457,0.265,0.479,0.429,0.395,0.216,0.189,�k,2.5,��
2016/02/25,06:00,0.459,0.266,0.477,0.428,0.396,0.216,0.190,�k�k��,1.5,��
2016/02/25,06:10,0.460,0.266,0.478,0.428,0.397,0.216,0.190,�k�k��,1.7,��
2016/02/25,06:20,0.458,0.266,0.477,0.430,0.397,0.217,0.189,�k�k��,1.3,��
2016/02/25,06:30,0.458,0.265,0.479,0.429,0.397,0.215,0.190,�k�k��,1.7,��
2016/02/25,06:40,0.458,0.265,0.480,0.428,0.395,0.217,0.188,�k��,2.0,��
2016/02/25,06:50,0.458,0.266,0.478,0.429,0.395,0.217,0.189,�k�k��,1.5,��
2016/02/25,07:00,0.459,0.266,0.478,0.428,0.396,0.217,0.190,�k,1.3,��
2016/02/25,07:10,0.452,0.261,0.472,0.428,0.395,0.214,0.190,�k�k��,1.4,��
2016/02/25,07:20,0.455,0.263,0.475,0.430,0.398,0.216,0.189,�k,2.2,��
2016/02/25,07:30,0.463,0.266,0.481,0.430,0.396,0.217,0.190,�k,2.8,��
2016/02/25,07:40,0.461,0.266,0.478,0.429,0.394,0.217,0.189,�k,2.8,��
2016/02/25,07:50,0.459,0.266,0.481,0.428,0.395,0.217,0.188,�k,2.3,��
2016/02/25,08:00,0.460,0.265,0.479,0.429,0.395,0.218,0.189,�k,3.3,��
2016/02/25,08:10,0.460,0.266,0.479,0.427,0.396,0.217,0.189,�k,2.1,��
2016/02/25,08:20,0.458,0.265,0.477,0.426,0.395,0.217,0.188,�k,3.1,��
2016/02/25,08:30,0.458,0.265,0.478,0.428,0.394,0.215,0.188,�k�k��,3.9,��
2016/02/25,08:40,0.456,0.264,0.477,0.426,0.395,0.217,0.188,�k�k��,3.6,��
2016/02/25,08:50,0.456,0.264,0.478,0.428,0.395,0.216,0.189,�k,2.5,��
2016/02/25,09:00,0.457,0.263,0.477,0.430,0.395,0.217,0.188,�k�k��,3.1,��
2016/02/25,09:10,0.458,0.263,0.476,0.428,0.395,0.216,0.188,�k��,3.1,��
2016/02/25,09:20,0.457,0.262,0.478,0.426,0.394,0.216,0.189,�k��,3.5,��
2016/02/25,09:30,0.457,0.264,0.479,0.429,0.396,0.216,0.189,�k�k��,3.8,��
2016/02/25,09:40,0.459,0.265,0.477,0.425,0.396,0.216,0.189,�k��,3.7,��
2016/02/25,09:50,0.457,0.264,0.477,0.427,0.393,0.216,0.189,�k��,3.3,��
2016/02/25,10:00,0.460,0.264,0.478,0.427,0.393,0.216,0.188,�k��,2.2,��
2016/02/25,10:10,0.459,0.265,0.479,0.426,0.397,0.217,0.189,���k��,2.2,��
2016/02/25,10:20,0.458,0.266,0.478,0.428,0.396,0.216,0.190,���k��,1.8,��
2016/02/25,10:30,0.459,0.264,0.476,0.428,0.395,0.216,0.190,�k��,2.1,��
2016/02/25,10:40,0.458,0.264,0.479,0.426,0.395,0.217,0.188,�k��,2.8,��
2016/02/25,10:50,0.456,0.265,0.477,0.427,0.396,0.216,0.189,���k��,1.0,��
2016/02/25,11:00,0.459,0.265,0.475,0.428,0.395,0.217,0.189,���k��,2.8,��
2016/02/25,11:10,0.460,0.264,0.477,0.428,0.396,0.216,0.190,���쓌,1.7,��
2016/02/25,11:20,0.458,0.265,0.477,0.429,0.397,0.216,0.189,��,3.4,��
2016/02/25,11:30,0.459,0.264,0.476,0.428,0.396,0.216,0.189,-,CALM,��
2016/02/25,11:40,0.459,0.264,0.478,0.427,0.395,0.218,0.189,�k��,3.2,��
2016/02/25,11:50,0.455,0.264,0.477,0.428,0.397,0.217,0.189,�k��,5.9,��
2016/02/25,12:00,0.458,0.265,0.473,0.427,0.394,0.216,0.189,���k��,6.7,��
2016/02/25,12:10,0.456,0.263,0.476,0.428,0.398,0.217,0.188,���k��,7.1,��
2016/02/25,12:20,0.458,0.264,0.474,0.426,0.395,0.215,0.188,��,9.0,��
2016/02/25,12:30,0.460,0.264,0.476,0.427,0.397,0.217,0.189,��,7.3,��
2016/02/25,12:40,0.456,0.263,0.475,0.425,0.397,0.216,0.189,���k��,5.6,��
2016/02/25,12:50,0.460,0.265,0.475,0.427,0.396,0.216,0.188,��,3.3,��
2016/02/25,13:00,0.459,0.264,0.476,0.427,0.399,0.216,0.190,���k��,3.6,��
2016/02/25,13:10,0.459,0.265,0.475,0.428,0.394,0.216,0.189,��,1.8,��
2016/02/25,13:20,0.462,0.266,0.475,0.427,0.396,0.216,0.190,���k��,8.2,��
2016/02/25,13:30,0.456,0.265,0.475,0.429,0.397,0.217,0.189,��,7.3,��
2016/02/25,13:40,0.460,0.265,0.476,0.428,0.398,0.216,0.189,���k��,8.2,��
2016/02/25,13:50,0.459,0.265,0.475,0.427,0.398,0.216,0.189,��,12.1,��
2016/02/25,14:00,0.459,0.263,0.478,0.428,0.397,0.216,0.190,���k��,10.6,��
2016/02/25,14:10,0.461,0.264,0.476,0.428,0.400,0.217,0.189,��,10.9,��
2016/02/25,14:20,0.459,0.265,0.477,0.432,0.396,0.216,0.190,���k��,9.0,��
2016/02/25,14:30,0.459,0.264,0.477,0.428,0.401,0.217,0.190,���k��,7.8,��
2016/02/25,14:40,0.461,0.266,0.477,0.429,0.397,0.216,0.190,�k��,4.2,��
2016/02/25,14:50,0.459,0.265,0.480,0.430,0.397,0.217,0.191,�k��,7.3,��
2016/02/25,15:00,0.459,0.265,0.480,0.430,0.399,0.216,0.191,���k��,8.7,��
2016/02/25,15:10,0.461,0.265,0.480,0.431,0.397,0.217,0.191,���k��,8.5,��
2016/02/25,15:20,0.461,0.265,0.480,0.432,0.398,0.217,0.190,�k��,5.0,��
2016/02/25,15:30,0.459,0.265,0.480,0.429,0.400,0.217,0.190,���k��,6.4,��
2016/02/25,15:40,0.462,0.265,0.480,0.430,0.397,0.217,0.189,��,6.6,��
2016/02/25,15:50,0.463,0.265,0.478,0.430,0.398,0.217,0.190,���k��,9.0,��
2016/02/25,16:00,0.461,0.266,0.481,0.431,0.399,0.217,0.189,��,9.8,��
2016/02/25,16:10,0.462,0.264,0.481,0.429,0.398,0.217,0.189,��,8.3,��
2016/02/25,16:20,0.461,0.265,0.479,0.430,0.397,0.217,0.189,��,9.0,��
2016/02/25,16:30,0.462,0.266,0.479,0.432,0.396,0.217,0.189,��,5.2,��
2016/02/25,16:40,0.462,0.266,0.480,0.430,0.398,0.217,0.190,��,8.1,��
2016/02/25,16:50,0.460,0.266,0.477,0.431,0.399,0.216,0.189,���k��,3.8,��
2016/02/25,17:00,0.461,0.265,0.478,0.430,0.396,0.217,0.189,���k��,2.2,��
2016/02/25,17:10,0.460,0.266,0.479,0.430,0.397,0.217,0.190,���k��,3.5,��
2016/02/25,17:20,0.459,0.267,0.480,0.430,0.398,0.218,0.190,���k��,4.4,��
2016/02/25,17:30,0.459,0.266,0.482,0.430,0.398,0.218,0.189,���k��,2.8,��
2016/02/25,17:40,0.462,0.266,0.479,0.430,0.397,0.218,0.188,���k��,6.8,��
2016/02/25,17:50,0.461,0.266,0.480,0.430,0.395,0.218,0.189,���k��,4.7,��
2016/02/25,18:00,0.459,0.266,0.480,0.432,0.397,0.217,0.189,���k��,4.5,��
2016/02/25,18:10,0.460,0.266,0.481,0.429,0.399,0.217,0.190,�k��,4.6,��
2016/02/25,18:20,0.459,0.266,0.479,0.429,0.398,0.217,0.188,�k��,6.2,��
2016/02/25,18:30,0.461,0.266,0.481,0.430,0.397,0.217,0.189,���k��,5.2,��
2016/02/25,18:40,0.461,0.266,0.481,0.432,0.397,0.219,0.189,���k��,7.3,��
2016/02/25,18:50,0.459,0.265,0.480,0.429,0.396,0.216,0.190,���k��,6.2,��
2016/02/25,19:00,0.460,0.267,0.480,0.430,0.398,0.218,0.188,�k��,5.6,��
2016/02/25,19:10,0.461,0.267,0.480,0.429,0.396,0.218,0.190,���k��,4.6,��
2016/02/25,19:20,0.458,0.265,0.480,0.431,0.397,0.219,0.189,�k��,3.5,��
2016/02/25,19:30,0.460,0.266,0.480,0.431,0.396,0.218,0.190,�k��,2.5,��
2016/02/25,19:40,0.460,0.265,0.480,0.430,0.395,0.218,0.190,���k��,1.5,��
2016/02/25,19:50,0.458,0.265,0.479,0.431,0.398,0.218,0.190,��,1.8,��
2016/02/25,20:00,0.459,0.264,0.479,0.431,0.398,0.219,0.189,��,2.5,��
2016/02/25,20:10,0.460,0.267,0.480,0.430,0.397,0.217,0.190,��,2.1,��
2016/02/25,20:20,0.459,0.267,0.479,0.431,0.397,0.218,0.191,���k��,2.1,��
2016/02/25,20:30,0.460,0.266,0.479,0.431,0.396,0.218,0.190,�k��,1.6,��
2016/02/25,20:40,0.460,0.266,0.478,0.431,0.397,0.218,0.189,�k�k��,0.7,��
2016/02/25,20:50,0.460,0.266,0.479,0.431,0.398,0.217,0.190,��쐼,0.9,��
2016/02/25,21:00,0.460,0.266,0.480,0.431,0.398,0.218,0.191,��쐼,4.2,��
2016/02/25,21:10,0.459,0.267,0.480,0.431,0.398,0.218,0.190,��쐼,5.6,��
2016/02/25,21:20,0.461,0.265,0.480,0.431,0.398,0.217,0.190,�쐼,3.9,��
2016/02/25,21:30,0.461,0.266,0.480,0.432,0.398,0.218,0.189,�쐼,4.6,��
2016/02/25,21:40,0.460,0.266,0.481,0.431,0.398,0.217,0.190,�쐼,6.2,��
2016/02/25,21:50,0.460,0.266,0.480,0.432,0.398,0.219,0.189,�쐼,7.0,��
2016/02/25,22:00,0.460,0.265,0.480,0.432,0.397,0.218,0.190,���쐼,5.6,��
2016/02/25,22:10,0.459,0.266,0.479,0.429,0.396,0.218,0.190,���쐼,5.1,��
2016/02/25,22:20,0.460,0.266,0.479,0.430,0.398,0.217,0.189,�쐼,5.9,��
2016/02/25,22:30,0.459,0.266,0.480,0.431,0.397,0.218,0.190,�쐼,6.2,��
2016/02/25,22:40,0.460,0.265,0.482,0.430,0.397,0.219,0.191,�쐼,6.4,��
2016/02/25,22:50,0.459,0.266,0.479,0.430,0.397,0.217,0.191,�쐼,5.9,��
2016/02/25,23:00,0.458,0.266,0.478,0.430,0.397,0.218,0.190,�쐼,6.7,��
2016/02/25,23:10,0.459,0.266,0.480,0.430,0.396,0.217,0.190,��쐼,7.6,��
2016/02/25,23:20,0.460,0.266,0.481,0.430,0.395,0.217,0.190,��쐼,8.3,��
2016/02/25,23:30,0.460,0.266,0.480,0.431,0.396,0.217,0.190,��쐼,7.9,��
2016/02/25,23:40,0.458,0.265,0.480,0.432,0.397,0.219,0.190,��쐼,7.9,��
2016/02/25,23:50,0.459,0.265,0.481,0.431,0.398,0.217,0.190,��쐼,7.9,��
